This is the latest recevied weather packets stored in our database for station/object K9RJT. If no packets are shown the sender has not sent any weather packets the latest 10 day(s).
| Time | Temp. | Humidity | Pressure | Rain* | Wind** | Luminosity | Snow |
|---|---|---|---|---|---|---|---|
| 1778039224 | 20° C | 41% | 1009.4 hPa | 0 mm | - | 0 W/m² | - |
| 1778038921 | 20.56° C | 40% | 1009.1 hPa | 0 mm | - | 0 W/m² | - |
| 1778038618 | 21.11° C | 39% | 1009.1 hPa | 0 mm | - | 0 W/m² | - |
| 1778038315 | 21.67° C | 37% | 1009 hPa | 0 mm | - | 0 W/m² | - |
| 1778038012 | 21.67° C | 36% | 1008.9 hPa | 0 mm | - | 0 W/m² | - |
| 1778037709 | 22.22° C | 36% | 1008.9 hPa | 0 mm | - | 1 W/m² | - |
| 1778037406 | 22.78° C | 36% | 1008.8 hPa | 0 mm | - | 2 W/m² | - |
| 1778037102 | 22.78° C | 35% | 1008.8 hPa | 0 mm | - | 3 W/m² | - |
| 1778036802 | 22.78° C | 34% | 1008.7 hPa | 0 mm | - | 5 W/m² | - |
| 1778036498 | 22.78° C | 34% | 1008.5 hPa | 0 mm | - | 7 W/m² | - |
| 1778036195 | 23.33° C | 34% | 1008.4 hPa | 0 mm | - | 10 W/m² | - |
| 1778035891 | 23.33° C | 34% | 1008.5 hPa | 0 mm | - | 12 W/m² | - |
| 1778035589 | 23.33° C | 34% | 1008.2 hPa | 0 mm | - | 15 W/m² | - |
| 1778035284 | 23.89° C | 34% | 1008.6 hPa | 0 mm | - | 17 W/m² | - |
| 1778034981 | 23.89° C | 33% | 1008.2 hPa | 0 mm | - | 19 W/m² | - |
| 1778034678 | 23.89° C | 33% | 1008.5 hPa | 0 mm | - | 25 W/m² | - |
| 1778034376 | 24.44° C | 33% | 1008.2 hPa | 0 mm | - | 30 W/m² | - |
| 1778034073 | 24.44° C | 33% | 1008.2 hPa | 0 mm | - | 34 W/m² | - |
| 1778033771 | 24.44° C | 32% | 1007.9 hPa | 0 mm | - | 37 W/m² | - |
| 1778033468 | 24.44° C | 33% | 1008 hPa | 0 mm | - | 36 W/m² | - |
| 1778033165 | 25° C | 32% | 1008.1 hPa | 0 mm | - | 33 W/m² | - |
| 1778032862 | 25° C | 33% | 1008 hPa | 0 mm | - | 44 W/m² | - |
| 1778032560 | 25° C | 32% | 1008.4 hPa | 0 mm | - | 46 W/m² | - |
| 1778032256 | 25.56° C | 33% | 1008 hPa | 0 mm | - | 47 W/m² | - |
| 1778031954 | 25.56° C | 32% | 1008 hPa | 0 mm | - | 48 W/m² | - |
* Rain latest hour (hover to see other rain measurements)
** Current wind speed in m/s (hover to see current wind gust speed)